User: anonymous   Login
Location: Unspecified
(0.0000°N, 0.0000°E)
Time: 02:39:24
(UTC+00:00)
Language:

SAPPHIRE - Orbit

View from above orbital plane
View from above orbital plane
View from above satellite
View from above satellite

Ground track
Ground track

The orbit data is extracted from the following two-line orbital elements,

1 39088U 13009C   19081.84624501 -.00000029 +00000-0 +52781-5 0  9990
2 39088 098.5066 286.4838 0011304 183.0631 177.0486 14.34188579317604
Epoch (UTC): 22 March 2019 20:18:35
Eccentricity: 0.0011304
inclination: 98.5066°
perigee height: 769 km
apogee height: 786 km
right ascension of ascending node: 286.4838°
argument of perigee: 183.0631°
revolutions per day: 14.34188579
mean anomaly at epoch: 177.0486°
orbit number at epoch: 31760

The dashed part of the orbit path shows where the satellite is in the earth's shadow,  

DLR